Jordan, MT

7:24 AM MDT on June 28, 2017 (GMT -0600)
Jordan

Weather History for KJDN - December, 2014

Change the Weather History Date:

Thursday, December 18, 2014

  Actual Average Record
Temperature  
Mean Temperature 31 °F 18 °F  
Max Temperature 45 °F 31 °F 61 °F (1979)
Min Temperature 16 °F 5 °F -38 °F (1983)
Degree Days  
Heating Degree Days 34 47  
Month to date heating degree days 669 807  
Since 1 July heating degree days 2739 2825  
Cooling Degree Days 0 0  
Month to date cooling degree days 0 0  
Year to date cooling degree days 460 421  
Moisture  
Dew Point 24 °F    
Average Humidity 71    
Maximum Humidity 92    
Minimum Humidity 49    
Precipitation  
Precipitation 0.00 in 0.01 in 0.20 in (1916)
Month to date precipitation 0.08 0.14  
Year to date precipitation 13.53 12.52  
Snow  
Snow 0.00 in - - ()
Month to date snowfall 0.0  
Since 1 July snowfall 0.0  
Snow Depth 0.00 in    
Sea Level Pressure  
Sea Level Pressure 30.02 in    
Wind  
Wind Speed 5 mph (West)    
Max Wind Speed 14 mph    
Max Gust Speed 17 mph    
T = Trace of Precipitation, MM = Missing Value Source: NWS Daily Summary

Daily Weather History Graph

Daily Weather History Graph

Search for Another Location

Airport or City:

Trip Planner

Search our weather history database for the weather conditions in past years. The results will help you decide how hot, cold, wet, or windy it might be!

Date:

Astronomy

Dec. 18, 2014 Rise Set
Actual Time 7:50 AM MST 4:18 PM MST
Civil Twilight 7:14 AM MST 4:54 PM MST
Nautical Twilight 6:35 AM MST 5:33 PM MST
Astronomical Twilight 5:58 AM MST 6:10 PM MST
Moon 3:54 AM MST (12/18) 2:11 PM MST (12/18)
Length of Visible Light 9h 39m
Length of Day
8h 28m
Waning Crescent, 13% of the Moon is Illuminated
Dec 18
Waning Crescent
Dec 21
New
Dec 28
First Quarter
Jan 4
Full
Jan 13
Last Quarter

Hourly Weather History & Observations

Time (MST) Temp. Windchill Dew Point Humidity Pressure Visibility Wind Dir Wind Speed Gust Speed Precip Events Conditions
12:48 AM 26.1 °F - 24.1 °F 92% 30.04 in - Calm Calm - N/A   Unknown
1:48 AM 27.0 °F 23.0 °F 24.1 °F 89% 30.03 in - ENE 3.5 mph - N/A   Unknown
2:48 AM 26.1 °F 21.9 °F 24.1 °F 92% 30.03 in - East 3.5 mph - N/A   Unknown
3:48 AM 26.1 °F - 24.1 °F 92% 30.04 in - Calm Calm - N/A   Unknown
4:48 AM 24.1 °F 19.7 °F 21.9 °F 91% 30.04 in - ESE 3.5 mph - N/A   Unknown
5:48 AM 19.9 °F - 17.1 °F 89% 30.04 in - Calm Calm - N/A   Unknown
6:48 AM 17.1 °F - 15.1 °F 92% 30.06 in - Calm Calm - N/A   Unknown
7:48 AM 17.1 °F 11.7 °F 15.1 °F 92% 30.06 in - West 3.5 mph - N/A   Unknown
8:48 AM 19.9 °F 14.9 °F 17.1 °F 89% 30.06 in - West 3.5 mph - N/A   Unknown
9:48 AM 26.1 °F 20.5 °F 23.0 °F 88% 30.04 in - WNW 4.6 mph - N/A   Unknown
10:48 AM 35.1 °F 29.3 °F 27.0 °F 72% 30.02 in - West 6.9 mph - N/A   Unknown
11:48 AM 41.0 °F 35.2 °F 26.1 °F 55% 29.99 in - West 9.2 mph - N/A   Unknown
12:48 PM 44.1 °F 40.1 °F 26.1 °F 49% 29.97 in - West 6.9 mph - N/A   Unknown
1:48 PM 44.1 °F 38.6 °F 26.1 °F 49% 29.96 in - WSW 10.4 mph - N/A   Unknown
2:48 PM 44.1 °F 40.8 °F 27.0 °F 51% 29.96 in - WSW 5.8 mph - N/A   Unknown
3:48 PM 39.0 °F 34.8 °F 28.0 °F 65% 29.99 in - West 5.8 mph - N/A   Unknown
4:48 PM 32.0 °F 26.4 °F 26.1 °F 79% 30.01 in - WNW 5.8 mph - N/A   Unknown
5:48 PM 30.9 °F 27.5 °F 26.1 °F 82% 30.01 in - West 3.5 mph - N/A   Unknown
6:48 PM 32.0 °F 26.4 °F 27.0 °F 82% 30.02 in - West 5.8 mph - N/A   Unknown
7:48 PM 32.0 °F 25.6 °F 27.0 °F 82% 30.02 in - West 6.9 mph - N/A   Unknown
8:48 PM 28.0 °F 21.7 °F 26.1 °F 92% 30.02 in - WNW 5.8 mph - N/A   Unknown
9:48 PM 30.0 °F 23.2 °F 27.0 °F 88% 30.01 in - West 6.9 mph - N/A   Unknown
10:48 PM 28.0 °F 20.8 °F 25.0 °F 88% 30.01 in - West 6.9 mph - N/A   Unknown
11:48 PM 28.0 °F 18.6 °F 25.0 °F 88% 29.99 in - WNW 10.4 mph - N/A   Unknown